Weather History for KATT - August, 2013

Change the Weather History Date:

Saturday, August 24, 2013

  Actual Average Record
Temperature  
Mean Temperature 90 °F 85 °F  
Max Temperature 101 °F 96 °F 107 °F (2010)
Min Temperature 78 °F 74 °F 64 °F (1966)
Degree Days  
Heating Degree Days 0 0  
Month to date heating degree days 0 0  
Since 1 June heating degree days 0 0  
Since 1 July heating degree days 0 0  
Cooling Degree Days 25 20  
Month to date cooling degree days 573 503  
Year to date cooling degree days 2458 2252  
Since 1 June cooling degree days 1834 1639  
Growing Degree Days 40 (Base 50)    
Moisture  
Dew Point 66 °F    
Average Humidity 53    
Maximum Humidity 74    
Minimum Humidity 31    
Precipitation  
Precipitation 0.00 in 0.09 in 3.02 in (1937)
Month to date precipitation 0.18 1.65  
Year to date precipitation 17.69 21.39  
Snow  
Snow 0.00 in - - ()
Month to date snowfall 0.0  
Since 1 June snowfall 0.0  
Since 1 July snowfall 0.0  
Snow Depth 0.00 in    
Sea Level Pressure  
Sea Level Pressure 29.96 in    
Wind  
Wind Speed 3 mph (SE)    
Max Wind Speed 13 mph    
Max Gust Speed 20 mph    
Visibility 10 miles    
Events Thunderstorm    
T = Trace of Precipitation, MM = Missing Value Source: NWS Daily Summary

Daily Weather History Graph

Daily Weather History Graph

Search for Another Location

Airport or City:

Trip Planner

Search our weather history database for the weather conditions in past years. The results will help you decide how hot, cold, wet, or windy it might be!

Date:

Astronomy

Aug. 24, 2013 Rise Set
Actual Time 7:03 AM CDT 8:02 PM CDT
Civil Twilight 6:38 AM CDT 8:27 PM CDT
Nautical Twilight 6:09 AM CDT 8:56 PM CDT
Astronomical Twilight 5:39 AM CDT 9:26 PM CDT
Moon 10:20 PM CDT (8/24) 10:43 AM CDT (8/24)
Length of Visible Light 13h 48m
Length of Day
12h 59m
Waning Gibbous, 84% of the Moon is Illuminated
Aug 24
Waning Gibbous
Aug 28
Last Quarter
Sep 5
New
Sep 12
First Quarter
Sep 19
Full

Hourly Weather History & Observations

Time (CDT) Temp. Heat Index Dew Point Humidity Pressure Visibility Wind Dir Wind Speed Gust Speed Precip Events Conditions
12:51 AM 84.0 °F 87.8 °F 69.1 °F 61% 29.94 in 10.0 mi South 4.6 mph - N/A   Clear
1:51 AM 82.9 °F 85.8 °F 68.0 °F 60% 29.95 in 10.0 mi Calm Calm - N/A   Clear
2:51 AM 81.0 °F 83.8 °F 68.0 °F 65% 29.95 in 10.0 mi Variable 3.5 mph - N/A   Clear
3:51 AM 81.0 °F 83.8 °F 68.0 °F 65% 29.95 in 10.0 mi Calm Calm - N/A   Partly Cloudy
4:51 AM 81.0 °F 83.8 °F 68.0 °F 65% 29.96 in 10.0 mi WNW 3.5 mph - N/A   Mostly Cloudy
5:51 AM 80.1 °F 82.9 °F 69.1 °F 69% 29.96 in 10.0 mi Calm Calm - N/A   Clear
6:51 AM 79.0 °F - 69.1 °F 72% 29.98 in 10.0 mi Calm Calm - N/A   Scattered Clouds
7:51 AM 80.1 °F 82.9 °F 69.1 °F 69% 30.00 in 10.0 mi Calm Calm - N/A   Clear
8:51 AM 86.0 °F 90.1 °F 69.1 °F 57% 30.01 in 10.0 mi NW 4.6 mph - N/A   Clear
9:51 AM 89.1 °F 92.1 °F 66.9 °F 48% 30.01 in 10.0 mi Calm Calm - N/A   Clear
10:51 AM 91.9 °F 93.3 °F 64.0 °F 39% 30.01 in 10.0 mi Calm Calm - N/A   Clear
11:51 AM 93.9 °F 96.1 °F 64.9 °F 38% 30.01 in 10.0 mi Calm Calm - N/A   Partly Cloudy
12:51 PM 96.1 °F 98.8 °F 64.9 °F 36% 29.99 in 10.0 mi NE 4.6 mph - N/A   Scattered Clouds
1:51 PM 96.1 °F 98.3 °F 64.0 °F 35% 29.98 in 10.0 mi North - - N/A   Mostly Cloudy
2:51 PM 98.1 °F 100.7 °F 64.0 °F 33% 29.96 in 10.0 mi Calm Calm - N/A   Clear
3:51 PM 98.1 °F 99.6 °F 63.0 °F 31% 29.93 in 10.0 mi East 8.1 mph - N/A   Partly Cloudy
4:18 PM 100.0 °F 101.8 °F 62.1 °F 29% 29.97 in 10.0 mi Variable 3.5 mph - N/A Thunderstorm Thunderstorm
4:34 PM 100.0 °F 101.8 °F 62.1 °F 29% 29.96 in 10.0 mi East 9.2 mph - N/A   Partly Cloudy
4:51 PM 100.0 °F 103.0 °F 64.0 °F 31% 29.91 in 10.0 mi Variable 4.6 mph - N/A   Clear
5:51 PM 96.1 °F 97.3 °F 63.0 °F 33% 29.90 in 10.0 mi Variable 5.8 mph - N/A   Clear
6:51 PM 97.0 °F 98.3 °F 63.0 °F 32% 29.90 in 10.0 mi Variable 6.9 mph - N/A   Clear
7:51 PM 91.0 °F 93.8 °F 66.0 °F 44% 29.92 in 10.0 mi SE 8.1 mph 19.6 mph N/A   Partly Cloudy
8:51 PM 89.1 °F 91.0 °F 64.9 °F 45% 29.93 in 10.0 mi Calm Calm - N/A   Partly Cloudy
9:00 PM - - - N/A% - - North - - N/A   Unknown
9:51 PM 89.1 °F 91.3 °F 66.0 °F 46% 29.95 in 10.0 mi East 3.5 mph - N/A   Partly Cloudy
10:51 PM 88.0 °F 91.4 °F 68.0 °F 51% 29.98 in 10.0 mi South 3.5 mph - N/A   Partly Cloudy
11:51 PM 84.9 °F 89.4 °F 70.0 °F 61% 29.99 in 10.0 mi South 4.6 mph - N/A   Clear